Hagerstown, MD

11:22 PM EST on February 27, 2017 (GMT -0500)
Hagerstown Regional-Henson

Weather History for KHGR - February, 2013

Change the Weather History Date:

Sunday, February 3, 2013

  Actual Average Record
Temperature  
Mean Temperature 26 °F 32 °F  
Max Temperature 32 °F 39 °F 56 °F (2006)
Min Temperature 19 °F 25 °F 15 °F (2007)
Degree Days  
Heating Degree Days 39 33  
Month to date heating degree days 127 99  
Since 1 July heating degree days 2867 3123  
Cooling Degree Days 0 0  
Month to date cooling degree days 0 0  
Year to date cooling degree days 0 0  
Moisture  
Dew Point 22 °F    
Average Humidity 89    
Maximum Humidity 100    
Minimum Humidity 78    
Precipitation  
Precipitation T in 0.09 in 1.05 in (2004)
Month to date precipitation T 0.26  
Year to date precipitation 2.98 2.94  
Sea Level Pressure  
Sea Level Pressure 29.91 in    
Wind  
Wind Speed 3 mph (WSW)    
Max Wind Speed 9 mph    
Max Gust Speed 13 mph    
Visibility 6 miles    
Events Snow    
T = Trace of Precipitation, MM = Missing Value Source: NWS Daily Summary

Daily Weather History Graph

Daily Weather History Graph

Search for Another Location

Airport or City:

Trip Planner

Search our weather history database for the weather conditions in past years. The results will help you decide how hot, cold, wet, or windy it might be!

Date:

Astronomy

Feb. 03, 2013 Rise Set
Actual Time 7:16 AM EST 5:33 PM EST
Civil Twilight 6:48 AM EST 6:01 PM EST
Nautical Twilight 6:16 AM EST 6:33 PM EST
Astronomical Twilight 5:44 AM EST 7:05 PM EST
Moon 12:42 AM EST (2/3) 11:09 AM EST (2/3)
Length of Visible Light 11h 13m
Length of Day
10h 16m
Waning Gibbous, 49% of the Moon is Illuminated
Feb 3
Waning Gibbous
Feb 10
New
Feb 17
First Quarter
Feb 25
Full
Mar 4
Last Quarter

Hourly Weather History & Observations

Time (EST) Temp. Windchill Dew Point Humidity Pressure Visibility Wind Dir Wind Speed Gust Speed Precip Events Conditions
12:53 AM 21.0 °F - 19.9 °F 96% 30.04 in 7.0 mi Calm Calm - N/A   Mostly Cloudy
1:53 AM 23.0 °F - 21.0 °F 92% 30.01 in 7.0 mi Calm Calm - N/A   Overcast
2:53 AM 23.0 °F 18.4 °F 21.9 °F 96% 29.99 in 7.0 mi NNE 3.5 mph - N/A   Overcast
3:53 AM 19.9 °F 13.4 °F 19.9 °F 100% 29.96 in 6.0 mi WNW 4.6 mph - N/A   Overcast
4:53 AM 19.0 °F 12.3 °F 18.0 °F 96% 29.95 in 4.0 mi NW 4.6 mph - N/A   Scattered Clouds
5:53 AM 19.9 °F - 19.0 °F 96% 29.96 in 5.0 mi Calm Calm - N/A   Overcast
6:53 AM 21.0 °F - 19.9 °F 96% 29.95 in 6.0 mi Calm Calm - N/A   Overcast
7:53 AM 21.0 °F 16.2 °F 19.9 °F 96% 29.96 in 4.0 mi WNW 3.5 mph - N/A   Overcast
8:53 AM 23.0 °F - 21.0 °F 92% 29.97 in 4.0 mi Calm Calm - N/A   Overcast
9:07 AM 23.0 °F - 21.2 °F 93% 29.90 in 2.5 mi Calm Calm - N/A   Overcast
9:28 AM 24.8 °F - 21.2 °F 86% 29.90 in 3.0 mi Calm Calm - 0.00 in   Overcast
9:53 AM 24.1 °F - 21.9 °F 91% 29.96 in 1.8 mi Calm Calm - 0.00 in Snow Light Snow
10:09 AM 24.8 °F 20.5 °F 23.0 °F 93% 29.90 in 2.0 mi WNW 3.5 mph - 0.00 in Snow Light Snow
10:22 AM 24.8 °F - 23.0 °F 93% 29.90 in 1.8 mi Calm Calm - 0.00 in Snow Light Snow
10:32 AM 24.8 °F - 23.0 °F 93% 29.90 in 1.2 mi Calm Calm - 0.00 in Snow Light Snow
10:53 AM 25.0 °F - 24.1 °F 96% 29.95 in 1.0 mi Calm Calm - 0.00 in Snow Light Snow
11:18 AM 26.6 °F - 24.8 °F 93% 29.88 in 3.0 mi Calm Calm - 0.00 in Snow Light Snow
11:34 AM 26.6 °F - 24.8 °F 93% 29.87 in 5.0 mi Calm Calm - 0.00 in   Overcast
11:53 AM 28.0 °F - 25.0 °F 88% 29.92 in 5.0 mi Calm Calm - 0.00 in   Overcast
12:00 PM 26.6 °F - 24.8 °F 93% 29.85 in 5.0 mi Calm Calm - N/A   Overcast
12:07 PM 28.4 °F - 24.8 °F 86% 29.85 in 5.0 mi Calm Calm - N/A   Overcast
12:53 PM 28.9 °F 25.2 °F 24.1 °F 82% 29.88 in 9.0 mi SW 3.5 mph - N/A   Overcast
1:18 PM 28.4 °F 23.3 °F 24.8 °F 86% 29.82 in 10.0 mi SW 4.6 mph - N/A   Mostly Cloudy
1:53 PM 30.0 °F 25.2 °F 25.0 °F 82% 29.86 in 9.0 mi SSW 4.6 mph - 0.00 in   Overcast
2:53 PM 30.9 °F 24.3 °F 25.0 °F 79% 29.84 in 10.0 mi SSW 6.9 mph - N/A   Overcast
3:03 PM 30.2 °F 24.3 °F 24.8 °F 80% 29.79 in 10.0 mi SSW 5.8 mph - N/A   Overcast
3:53 PM 30.9 °F 24.3 °F 25.0 °F 79% 29.85 in 10.0 mi SSW 6.9 mph - N/A   Scattered Clouds
4:53 PM 30.9 °F 24.3 °F 25.0 °F 79% 29.84 in 9.0 mi SSW 6.9 mph - N/A   Overcast
5:53 PM 30.0 °F 26.5 °F 26.1 °F 85% 29.85 in 8.0 mi SSW 3.5 mph - 0.00 in   Overcast
6:53 PM 30.9 °F 22.8 °F 23.0 °F 72% 29.87 in 10.0 mi West 9.2 mph - 0.00 in   Overcast
7:53 PM 30.0 °F 17.5 °F 23.0 °F 75% 29.90 in 8.0 mi WNW 19.6 mph 29.9 mph 0.00 in Snow Light Snow
8:53 PM 28.9 °F 15.4 °F 14.0 °F 54% 29.94 in 10.0 mi West 21.9 mph 28.8 mph 0.00 in   Overcast
9:53 PM 28.0 °F 14.3 °F 14.0 °F 56% 29.96 in 10.0 mi WNW 21.9 mph 28.8 mph N/A   Overcast
10:53 PM 26.1 °F 13.6 °F 15.1 °F 63% 29.98 in 10.0 mi WNW 16.1 mph - N/A   Overcast
11:53 PM 25.0 °F 10.9 °F 16.0 °F 69% 29.99 in 10.0 mi West 19.6 mph - 0.00 in   Overcast